User: anonymous   Login
Location: Fort Wayne
(41.1310°N, 85.1290°W)
Time: 20:14:00
(UTC-04:00)
Language:

SL-08 RB Rocket - Orbit

View from above orbital plane
View from above orbital plane
View from above satellite
View from above satellite

Ground track
Ground track

The orbit data is extracted from the following two-line orbital elements,

1 26387U 00033D   17173.82505138 +.00000085 +00000-0 +23142-4 0  9992
2 26387 097.9703 237.9677 0025546 321.6288 173.1435 14.68284307908707
Epoch (UTC): 22 June 2017 19:48:04
Eccentricity: 0.0025546
inclination: 97.9703°
perigee height: 648 km
apogee height: 684 km
right ascension of ascending node: 237.9677°
argument of perigee: 321.6288°
revolutions per day: 14.68284307
mean anomaly at epoch: 173.1435°
orbit number at epoch: 90870

The dashed part of the orbit path shows where the satellite is in the earth's shadow,  

DLR